Location: Zagreb
(45.8000°N, 16.0000°E)
Time: 22:49:05
(UTC+02:00)

Transit 2A - Visible Passes

Search period start: 07 October 2024 00:00
Search period end: 17 October 2024 00:00
Orbit: 590 x 960 km, 66.7° (Epoch: 06 October)

Date Brightness Start Highest point End Pass type
(mag) Time Alt. Az. Time Alt. Az. Time Alt. Az.
07 Oct 8.6 19:08:54 10° N 19:10:11 11° N 19:11:26 10° NNE visible
07 Oct 7.9 20:51:18 10° NNW 20:55:53 21° NNE 20:55:53 21° NNE visible
07 Oct 8.3 22:34:02 10° NNW 22:36:16 23° NNW 22:36:16 23° NNW visible
08 Oct 8.0 20:15:59 10° NNW 20:20:00 17° NNE 20:21:17 16° NE visible
08 Oct 7.9 21:58:34 10° NNW 22:01:41 29° NNW 22:01:41 29° NNW visible
09 Oct 8.2 19:40:40 10° N 19:44:03 15° NNE 19:46:44 11° NE visible
09 Oct 7.5 21:23:09 10° NNW 21:27:07 33° N 21:27:07 33° N visible
09 Oct 8.9 23:06:35 10° NW 23:07:31 14° NW 23:07:31 14° NW visible
10 Oct 8.3 19:05:22 10° N 19:08:01 13° NNE 19:10:34 10° NE visible
10 Oct 7.4 20:47:47 10° NNW 20:52:35 31° NNE 20:52:35 31° NNE visible
10 Oct 8.4 22:30:53 10° NW 22:32:59 22° NW 22:32:59 22° NW visible
11 Oct 7.5 20:12:25 10° NNW 20:17:27 25° NE 20:18:05 25° NE visible
11 Oct 7.8 21:55:18 10° NW 21:58:29 32° NW 21:58:29 32° NW visible
12 Oct 7.8 19:37:04 10° NNW 19:41:35 20° NNE 19:43:37 17° ENE visible
12 Oct 7.1 21:19:46 10° NNW 21:24:01 45° NNW 21:24:01 45° NNW visible
12 Oct 9.1 23:04:10 10° WNW 23:04:25 11° WNW 23:04:25 11° WNW visible
13 Oct 8.0 19:01:45 10° NNW 19:05:39 17° NNE 19:09:11 11° ENE visible
13 Oct 6.6 20:44:18 10° NNW 20:49:35 51° NNE 20:49:35 51° NNE visible
13 Oct 8.6 22:28:06 10° NW 22:29:59 18° WNW 22:29:59 18° WNW visible
14 Oct 6.7 20:08:53 10° NNW 20:14:37 40° NE 20:15:13 39° ENE visible
14 Oct 7.9 21:52:15 10° NW 21:55:37 30° WNW 21:55:37 30° WNW visible
15 Oct 7.2 19:33:30 10° NNW 19:38:52 31° NE 19:40:54 25° ENE visible
15 Oct 7.0 21:16:34 10° NW 21:21:18 50° WNW 21:21:18 50° WNW visible
16 Oct 7.5 18:58:07 10° NNW 19:03:03 24° NE 19:06:38 14° E visible
16 Oct 6.1 20:40:58 10° NW 20:47:02 84° WSW 20:47:03 84° SW visible
16 Oct 8.9 22:26:18 10° WNW 22:27:28 12° W 22:27:28 12° W visible
